User: anonymous   Login
Location: Trois-Rivi�res
(46.3500°N, 72.5500°W)
Time: 14:10:51
(UTC-04:00)
Language:

Cosmos 1544 - Orbit

View from above orbital plane
View from above orbital plane
View from above satellite
View from above satellite

Ground track
Ground track

The orbit data is extracted from the following two-line orbital elements,

1 14819U 84027A   15244.22385338  .00002723  00000-0  11605-3 0  9994
2 14819  82.4884 324.6136 0015937 175.1121 214.5521 15.22419801716037
Epoch (UTC): 01 September 2015 05:22:20
Eccentricity: 0.0015937
inclination: 82.4884°
perigee height: 487 km
apogee height: 509 km
right ascension of ascending node: 324.6136°
argument of perigee: 175.1121°
revolutions per day: 15.22419801
mean anomaly at epoch: 214.5521°
orbit number at epoch: 71603

The dashed part of the orbit path shows where the satellite is in the earth's shadow,  

DLR